Flag for Germany Weather past 2 weeks in Oberhausen, North Rhine-Westphalia, Germany

Now
52 °F

Clear.


Feels Like: 48 °F
Forecast: 42 / 49 °F
Wind: 10 mph from Southwest

Location: Duesseldorf

Current Time: Oct 21, 2014 at 2:48:07 AM

Latest Report: Oct 21, 2014 at 2:20 AM


Visibility: 10 mi

Pressure: 29.92 "Hg

Humidity: 94%

Dew point: 50 °F

Location of OberhausenLocation

Historic Weather in Oberhausen — Graph

°F

Oberhausen temperature yesterday

Maximum temperature yesterday: 63 °F (at 1:50 PM)
Minimum temperature yesterday: 54 °F (at 4:50 AM)
Average temperature yesterday: 58 °F

Past Weeks' High & Low Weather Summary

 TemperatureHumidityPressure
High75 °F (Oct 19, 2:20 PM)100% (Oct 6, 3:50 AM)30.09 "Hg (Oct 6, 3:50 AM)
Low48 °F (Oct 11, 4:50 AM)49% (Oct 14, 2:20 PM)29.50 "Hg (Oct 7, 9:50 AM)
Average59 °F81%29.83 "Hg
* Reported Oct 6 1:20 AM — Oct 21 1:50 AM, Oberhausen, Weather by CustomWeather, © 2014

Note: Actual official high and low records may vary slightly from our data, if they occured in-between our weather recording intervals... More about our weather records

Advertising

Oberhausen weather history for previous 24 hours

 ConditionsComfort  
Time TempWeatherWind HumidityBarometerVisibility
1:50 AM
Oct 21
52 °FClear.10 mph94%29.92 "Hg10 mi
1:20 AM54 °FClear.10 mph88%29.92 "Hg10 mi
12:50 AM54 °FClear.10 mph88%29.92 "Hg10 mi
12:20 AM54 °FClear.9 mph88%29.92 "Hg10 mi
11:50 PM
Oct 20
54 °FClear.9 mph88%29.95 "Hg10 mi
11:20 PM55 °FClear.10 mph88%29.95 "Hg10 mi
10:50 PM55 °FScattered showers. Passing clouds.10 mph88%29.95 "HgN/A
10:20 PM57 °FScattered showers. Passing clouds.10 mph82%29.95 "HgN/A
9:50 PM57 °FScattered showers. Passing clouds.12 mph82%29.95 "HgN/A
9:20 PM55 °FPassing clouds.9 mph94%29.98 "HgN/A
8:50 PM57 °FPassing clouds.10 mph82%29.98 "HgN/A
8:20 PM57 °FSprinkles. Passing clouds.14 mph82%29.98 "HgN/A
7:50 PM59 °FScattered showers. Passing clouds.10 mph77%29.98 "HgN/A
7:20 PM57 °FScattered clouds.12 mph82%29.98 "HgN/A
6:50 PM55 °FPassing clouds.9 mph82%29.98 "HgN/A
6:20 PM57 °FPassing clouds.9 mph77%29.98 "HgN/A
5:50 PM61 °FPassing clouds.12 mph72%29.98 "HgN/A
5:20 PM61 °FPassing clouds.12 mph72%29.98 "HgN/A
4:50 PM61 °FPassing clouds.12 mph72%29.98 "HgN/A
4:20 PM61 °FScattered clouds.14 mph68%30.01 "HgN/A
3:50 PM63 °FScattered clouds.13 mph64%30.01 "HgN/A
3:20 PM63 °FPartly sunny.14 mph68%30.01 "HgN/A
2:50 PM61 °FPartly sunny.14 mph72%30.01 "HgN/A
2:20 PM61 °FScattered clouds.14 mph72%30.04 "HgN/A
1:50 PM63 °FScattered clouds.15 mph68%30.04 "HgN/A
1:20 PM61 °FPartly sunny.15 mph72%30.04 "HgN/A
12:50 PM61 °FPartly sunny.15 mph72%30.04 "HgN/A
12:20 PM59 °FPartly sunny.15 mph77%30.04 "HgN/A
11:50 AM59 °FPartly sunny.12 mph82%30.04 "HgN/A
11:20 AM59 °FBroken clouds.12 mph82%30.04 "HgN/A
10:50 AM59 °FPartly sunny.13 mph77%30.04 "HgN/A
10:20 AM59 °FPartly sunny.13 mph77%30.04 "HgN/A
9:50 AM57 °FBroken clouds.12 mph88%30.04 "HgN/A
9:20 AM57 °FBroken clouds.12 mph82%30.04 "HgN/A
8:50 AM57 °FPassing clouds.12 mph82%30.04 "HgN/A
8:20 AM57 °FPassing clouds.12 mph82%30.04 "HgN/A
7:50 AM57 °FPassing clouds.12 mph88%30.01 "HgN/A
7:20 AM57 °FPassing clouds.12 mph82%30.04 "HgN/A
6:50 AM57 °FPassing clouds.12 mph88%30.01 "HgN/A
5:20 AM55 °FPassing clouds.9 mph88%30.01 "HgN/A
4:50 AM54 °FPassing clouds.8 mph88%30.01 "HgN/A
4:20 AM55 °FPassing clouds.8 mph88%30.01 "HgN/A
3:50 AM55 °FPassing clouds.9 mph88%30.04 "HgN/A
3:20 AM55 °FPassing clouds.9 mph88%30.04 "HgN/A
2:50 AM57 °FPassing clouds.9 mph82%30.04 "HgN/A
2:20 AM59 °FClear.12 mph77%30.04 "Hg10 mi
Weather by CustomWeather, © 2014

See weather overviewHow to use our weather pages